[Iaude] MPEC J234: 2024 JF8 [a=1.27,e=0.17,i=15.2,H=25.9]

mpec at cfa.harvard.edu mpec at cfa.harvard.edu
Thu May 9 19:10:18 EDT 2024


M.P.E.C. 2024-J234                                  Issued 2024 May 9, 23:07 UT

     The Minor Planet Electronic Circulars contain information on unusual
         minor planets, routine data on comets and natural satellites,
         and occasional editorial announcements.  They are published
    on behalf of Division F of the International Astronomical Union by the
          Minor Planet Center, Smithsonian Astrophysical Observatory,
                          Cambridge, MA 02138, U.S.A.
			  
             Prepared using the Tamkin Foundation Computer Network

                              MPC at CFA.HARVARD.EDU
            URL https://www.minorplanetcenter.net/    ISSN 1523-6714

                                    2024 JF8                                    


Observations:
     K24J08F*1C2024 05 08.24955712 33 57.467-12 10 11.42         20.94GVEJ234G96
     K24J08F 1C2024 05 08.25472212 34 00.707-12 08 33.14         20.06GVEJ234G96
     K24J08F 1C2024 05 08.25991412 34 04.112-12 06 55.37         20.13GVEJ234G96
     K24J08F 1C2024 05 08.26509212 34 07.475-12 05 15.97         21.38GVEJ234G96
     K24J08F KC2024 05 08.32248912 34 44.854-11 46 58.08               VEJ234I52
     K24J08F KC2024 05 08.32470212 34 46.340-11 46 15.82         20.54GVEJ234I52
     K24J08F KC2024 05 08.32691112 34 47.824-11 45 33.41         20.87GVEJ234I52
     K24J08F KC2024 05 08.32912612 34 49.278-11 44 50.82         20.11GVEJ234I52
     K24J08F 1C2024 05 08.85593 12 41 13.59 -08 56 40.2          21.4 VXEJ234033
     K24J08F 1C2024 05 08.85673 12 41 14.11 -08 56 24.6          20.9 VXEJ234033
     K24J08F 1C2024 05 08.85753 12 41 14.65 -08 56 09.0          21.2 VXEJ234033
     K24J08F 1C2024 05 08.85833 12 41 15.18 -08 55 53.8          21.3 VXEJ234033
     K24J08F 7C2024 05 08.90135312 41 45.819-08 41 28.68         19.8 GVEJ234Z84
     K24J08F 7C2024 05 08.90345912 41 47.198-08 40 47.71         19.6 GVEJ234Z84
     K24J08F KB2024 05 08.95948512 42 23.61 -08 22 50.6          20.5 GXEJ234I93
     K24J08F KB2024 05 08.97835712 42 36.09 -08 16 41.1          20.7 GXEJ234I93
     K24J08F KC2024 05 09.16742312 44 57.86 -07 14 43.5          20.7 GXEJ234858
     K24J08F KC2024 05 09.17425112 45 02.31 -07 12 30.1          20.7 GXEJ234858
     K24J08F KC2024 05 09.18101512 45 06.69 -07 10 17.3          20.9 GXEJ234858
     K24J08F KC2024 05 09.18353112 45 09.223-07 09 21.24         20.30GVEJ234I52
     K24J08F KC2024 05 09.18463812 45 09.947-07 08 59.93         20.35GVEJ234I52
     K24J08F KC2024 05 09.18573912 45 10.663-07 08 38.15               VEJ234I52
     K24J08F KC2024 05 09.18685512 45 11.376-07 08 16.37         20.13GVEJ234I52
     K24J08F 1C2024 05 09.85936 12 53 12.79 -03 27 52.2          20.6 VXEJ234033
     K24J08F 1C2024 05 09.86020 12 53 13.36 -03 27 35.6          20.7 VXEJ234033
     K24J08F 1C2024 05 09.86122 12 53 14.04 -03 27 15.5          20.0 VXEJ234033
     K24J08F 1C2024 05 09.86221 12 53 14.70 -03 26 55.4          20.2 VXEJ234033
     K24J08F KB2024 05 09.86935112 53 21.60 -03 24 17.3          20.1 GXEJ234958
     K24J08F KB2024 05 09.87491012 53 25.30 -03 22 27.5          19.6 GXEJ234958
     K24J08F KB2024 05 09.88043012 53 28.91 -03 20 38.3          20.0 GXEJ234958

Observer details:
033 Karl Schwarzschild Observatory, Tautenburg.  Observers S. Melnikov, C.
    Hogner, F. Ludwig, M. Hartmann, B. Stecklum.  Measurer B. Stecklum.
    1.34-m f/3 Schmidt + CCD.
858 Tebbutt Observatory, Edgewood.  Observer F. B. Zoltowski.  0.51-m f/8.1
    Schmidt-Cassegrain + CCD.
958 Observatoire de Dax.  Observer P. Dupouy.  0.50-m f/4.5 Reflector + CMO.
G96 Mt. Lemmon Survey.  Observer J. K. Hogan.  Measurers T. Beuden, V. F.
    Carvajal, D. Fay, J. B. Fazekas, D. C. Fuls, A. R. Gibbs, A. D. Grauer, H.
    Groeller, J. K. Hogan, R. A. Kowalski, S. M. Larson, G. J. Leonard, D.
    Rankin, R. L. Seaman, F. C. Shelly, K. W. Wierzchos.  1.5-m reflector +
    10K CCD.
I52 Steward Observatory, Mt. Lemmon Station.  Observer H. Groeller.  Measurers
    T. Beuden, V. F. Carvajal, D. Fay, J. B. Fazekas, D. C. Fuls, A. R. Gibbs,
    A. D. Grauer, H. Groeller, J. K. Hogan, R. A. Kowalski, S. M. Larson, G.
    J. Leonard, D. Rankin, R. L. Seaman, F. C. Shelly, K. W. Wierzchos.  1.0-m
    prime focus + CCD.
I93 St Pardon de Conques.  Observer F. Losse.  0.40-m f/3.7 reflector + CMO.
Z84 Calar Alto-Schmidt.  Observers F. Ocana, R. Kresken, M. Micheli, L.
    Conversi.  Measurers F. Ocana, M. Micheli.  0.8-m f/3 Schmidt + CCD.

Orbital elements:
2024 JF8                                                 Earth MOID = 0.0362 AU
Epoch 2024 Mar. 31.0 TT = JDT 2460400.5                 Veres                   
M 330.31363              (2000.0)            P               Q                  
n   0.69130142     Peri.    3.41775     -0.63022373     +0.75197852             
a   1.2667505      Node   227.62869     -0.71840484     -0.65918652             
e   0.1746609      Incl.   15.16372     -0.29446992     -0.00119509             
P   1.43           H   25.94          G   0.15           U   8                  
Residuals in seconds of arc
240508 G96  0.3+  0.3+    240508 033  0.0   0.3+    240509 I52  0.1+  0.2-
240508 G96  0.9-  0.3+    240508 033  0.1+  0.1-    240509 I52  0.2+  0.0
240508 G96  0.1-  0.8-    240508 Z84  0.2-  0.2-    240509 I52  0.1+  0.1-
240508 G96  0.2+  0.1-    240508 Z84  0.0   0.2-    240509 033  0.3-  0.4-
240508 I52  0.4-  0.1+    240508 I93  0.2+  0.4+    240509 033  0.1-  0.4-
240508 I52  0.0   0.1-    240508 I93  0.2+  0.8+    240509 033  0.1-  0.5-
240508 I52  0.3+  0.1-    240509 858  0.0   0.7+    240509 033  0.1-  0.0
240508 I52  0.1+  0.0     240509 858  0.3+  0.4+    240509 958  0.1-  0.4+
240508 033  0.0   0.1+    240509 858  0.3+  0.6+    240509 958  0.5+  0.2+
240508 033  0.1-  0.2+    240509 I52  0.0   0.2+    240509 958  0.1+  0.2+

Ephemeris:
2024 JF8                 a,e,i = 1.27, 0.17, 15                  q = 1.0455
Date    TT    R. A. (2000) Decl.     Delta      r    Elong.  Phase     V
2024 04 09    09 26 39.9 -58 56 23   0.1532  1.0717   113.4    59.0    24.1
...
2024 04 24    10 21 00.6 -51 31 00   0.08917 1.0539   120.6    55.2    22.8
...
2024 05 02    11 25 06.0 -37 37 29   0.05889 1.0483   132.2    45.4    21.6
...
2024 05 08    12 31 03.0 -13 26 33   0.04510 1.0461   143.8    34.7    20.7
2024 05 09    12 42 55.5 -08 07 20   0.04428 1.0458   144.4    34.2    20.7
2024 05 10    12 54 52.5 -02 39 01   0.04397 1.0457   144.0    34.5    20.7
...
2024 05 16    14 04 05.2 +26 02 54   0.05254 1.0457   130.1    47.7    21.4
...
2024 05 24    15 16 50.6 +43 56 57   0.08016 1.0483   114.4    61.6    22.8
...
2024 06 08    16 32 08.8 +51 45 12   0.1427  1.0611   105.1    67.5    24.2

M. P. C. Staff               (C) Copyright 2024 MPC           M.P.E.C. 2024-J234





More information about the Iaude mailing list